FW0067 Weather Reports


Display with metric or nautical units.
time (UTC)temp
F
wind
direction
speed
MPH
gust
MPH
rain 1hr
in
rain 24hr
in
rain mn
in
humidity
%
barometer
mb
20221004011204 61 326 1.0 3.0 0.00 0.00 0.00 64 1027.1
20221004010204 61 294 0.0 2.0 0.00 0.00 0.00 65 1027.2
20221004005705 61 294 1.0 2.0 0.00 0.00 0.00 68 1027.2
20221004005205 60 293 0.0 3.0 0.00 0.00 0.00 71 1027.3
20221004004705 60 292 1.0 3.0 0.00 0.00 0.00 73 1027.3
20221004004204 60 292 1.0 3.0 0.00 0.00 0.00 76 1027.5
20221004003704 59 292 0.0 3.0 0.00 0.00 0.00 78 1027.5
20221004002705 58 292 0.0 0.0 0.00 0.00 0.00 80 1027.6
20221004002204 57 292 0.0 0.0 0.00 0.00 0.00 81 1027.6
20221004001704 57 292 0.0 0.0 0.00 0.00 0.00 84 1027.7
20221004001205 56 292 0.0 1.0 0.00 0.00 0.00 87 1027.9
20221004000705 55 292 0.0 1.0 0.00 0.00 0.00 88 1027.9
20221004000204 55 292 0.0 2.0 0.00 0.00 0.00 88 1027.9
20221003235204 54 292 1.0 3.0 0.00 0.00 0.00 89 1028.0
20221003234705 54 292 1.0 3.0 0.00 0.00 0.00 91 1028.0
20221003233704 53 292 1.0 3.0 0.00 0.00 0.00 92 1027.9
20221003233205 52 292 0.0 1.0 0.00 0.00 0.00 93 1027.9
20221003232704 52 292 0.0 2.0 0.00 0.00 0.00 93 1027.8
20221003232204 52 292 0.0 2.0 0.00 0.00 0.00 94 1027.9
20221003231705 52 292 0.0 2.0 0.00 0.00 0.00 95 1028.0
20221003231205 51 292 0.0 0.0 0.00 0.00 0.00 95 1028.0
20221003230705 51 292 0.0 0.0 0.00 0.00 0.00 95 1028.1
20221003225705 50 292 0.0 0.0 0.00 0.00 0.00 96 1028.0
20221003225205 50 290 0.0 0.0 0.00 0.00 0.00 96 1028.1
20221003224204 49 290 0.0 2.0 0.00 0.00 0.00 96 1028.0
20221003223704 49 290 0.0 2.0 0.00 0.00 0.00 97 1027.9
20221003223205 49 290 0.0 0.0 0.00 0.00 0.00 97 1027.8
20221003222705 48 290 0.0 1.0 0.00 0.00 0.00 97 1027.9
20221003222204 48 290 0.0 1.0 0.00 0.00 0.00 97 1027.9
20221003221705 47 290 0.0 0.0 0.00 0.00 0.00 97 1028.0
20221003221205 47 290 0.0 0.0 0.00 0.00 0.00 96 1028.0
20221003220705 46 290 0.0 0.0 0.00 0.00 0.00 96 1028.1
20221003215204 45 290 0.0 0.0 0.00 0.00 0.00 96 1028.0
20221003214205 45 290 0.0 0.0 0.00 0.00 0.00 96 1027.9
20221003213204 44 290 0.0 0.0 0.00 0.00 0.00 96 1027.9
20221003212205 44 290 0.0 0.0 0.00 0.00 0.00 96 1027.9
20221003211205 43 290 0.0 0.0 0.00 0.00 0.00 96 1027.8
20221003210705 43 290 0.0 0.0 0.00 0.00 0.00 96 1027.9
20221003210205 43 290 0.0 0.0 0.00 0.00 0.00 96 1027.7
20221003205705 42 290 0.0 1.0 0.00 0.00 0.00 95 1027.7
20221003205204 42 290 0.0 3.0 0.00 0.00 0.00 95 1027.7
20221003204704 42 290 0.0 3.0 0.00 0.00 0.00 95 1027.7
20221003204204 42 290 0.0 0.0 0.00 0.00 0.00 95 1027.5
20221003203705 42 290 0.0 0.0 0.00 0.00 0.00 95 1027.5
20221003203205 42 290 0.0 0.0 0.00 0.00 0.00 96 1027.5
20221003202704 42 290 0.0 0.0 0.00 0.00 0.00 96 1027.4
20221003202205 41 290 0.0 0.0 0.00 0.00 0.00 96 1027.4
20221003201205 41 290 0.0 0.0 0.00 0.00 0.00 96 1027.2
20221003200705 41 290 0.0 0.0 0.00 0.00 0.00 95 1027.2
20221003195704 40 290 0.0 0.0 0.00 0.00 0.00 95 1027.0
20221003195204 40 290 0.0 0.0 0.00 0.00 0.00 95 1026.9
20221003194204 39 290 0.0 0.0 0.00 0.00 0.00 95 1026.8
20221003193204 39 290 0.0 0.0 0.00 0.00 0.00 94 1026.7
20221003192205 40 290 0.0 0.0 0.00 0.00 0.00 95 1026.5
20221003191704 40 290 0.0 0.0 0.00 0.00 0.00 95 1026.4
20221003190205 40 290 0.0 0.0 0.00 0.00 0.00 95 1026.3
20221003185704 40 290 0.0 0.0 0.00 0.01 0.00 95 1026.1
20221003184705 40 290 0.0 0.0 0.00 0.01 0.00 94 1026.1
20221003184204 40 290 0.0 0.0 0.00 0.01 0.00 94 1026.2
20221003182205 40 290 0.0 0.0 0.00 0.01 0.00 94 1026.0
20221003181205 41 290 0.0 0.0 0.00 0.01 0.00 94 1025.8
20221003180704 41 290 0.0 0.0 0.00 0.01 0.00 94 1025.8
20221003180205 41 290 0.0 0.0 0.00 0.01 0.00 94 1025.8
20221003174704 41 290 0.0 0.0 0.00 0.01 0.00 94 1025.8
20221003173205 41 290 0.0 0.0 0.00 0.01 0.00 94 1025.7
20221003171705 41 290 0.0 0.0 0.00 0.01 0.00 94 1025.6
20221003171204 41 290 0.0 0.0 0.00 0.01 0.00 94 1025.6
20221003170704 41 290 0.0 0.0 0.00 0.01 0.00 94 1025.7
20221003165704 41 290 0.0 0.0 0.00 0.01 0.00 94 1025.7
20221003165204 41 290 0.0 0.0 0.00 0.01 0.00 94 1025.6
20221003163705 41 290 0.0 0.0 0.00 0.01 0.00 94 1025.6
20221003163205 41 290 0.0 0.0 0.00 0.01 0.00 94 1025.7
20221003162205 41 290 0.0 0.0 0.00 0.01 0.00 93 1025.7
20221003161705 41 290 0.0 0.0 0.00 0.01 0.00 93 1025.7
20221003161204 41 290 0.0 0.0 0.00 0.01 0.00 93 1025.6
20221003155704 42 290 0.0 0.0 0.00 0.01 0.00 93 1025.6
20221003155205 42 290 0.0 0.0 0.00 0.01 0.00 93 1025.6
20221003153704 43 290 0.0 0.0 0.00 0.01 0.00 93 1025.7
20221003153204 43 290 0.0 0.0 0.00 0.01 0.00 93 1025.8
20221003152704 43 290 0.0 0.0 0.00 0.01 0.00 93 1025.8
20221003152205 43 290 0.0 0.0 0.00 0.01 0.00 93 1025.7
20221003151204 43 290 0.0 0.0 0.00 0.01 0.00 93 1025.7
20221003150704 43 290 0.0 0.0 0.00 0.01 0.00 93 1025.5
20221003150204 43 290 0.0 0.0 0.00 0.01 0.00 92 1025.6
20221003144704 43 290 0.0 0.0 0.00 0.01 0.00 93 1025.8
20221003144204 43 290 0.0 0.0 0.00 0.01 0.00 93 1026.0
20221003143704 43 290 0.0 0.0 0.00 0.01 0.00 93 1025.9
20221003143204 42 290 0.0 0.0 0.00 0.01 0.00 93 1025.8
20221003142705 42 290 0.0 0.0 0.00 0.01 0.00 92 1025.8
20221003142204 42 290 0.0 0.0 0.00 0.01 0.00 92 1025.9
20221003141204 43 290 0.0 0.0 0.00 0.01 0.00 92 1025.9
20221003140704 43 290 0.0 0.0 0.00 0.01 0.00 92 1025.8
20221003134704 44 290 0.0 0.0 0.00 0.01 0.00 92 1025.9
20221003134204 44 290 0.0 0.0 0.00 0.01 0.00 92 1025.9
20221003131704 44 290 0.0 0.0 0.00 0.01 0.00 91 1025.7
20221003130705 44 290 0.0 0.0 0.00 0.01 0.00 91 1025.7
20221003130204 44 290 0.0 0.0 0.00 0.01 0.00 90 1025.7
20221003125204 44 290 0.0 0.0 0.00 0.01 0.00 90 1025.7
20221003124705 44 290 0.0 0.0 0.00 0.01 0.00 90 1025.8
20221003124205 45 290 0.0 0.0 0.00 0.01 0.00 90 1025.9
20221003123704 45 290 0.0 0.0 0.00 0.01 0.00 90 1025.9
20221003121705 45 290 0.0 0.0 0.00 0.01 0.00 89 1025.6
20221003121205 45 290 0.0 0.0 0.00 0.01 0.00 89 1025.7
20221003120204 45 290 0.0 0.0 0.00 0.01 0.00 88 1025.6
20221003115205 46 290 0.0 0.0 0.00 0.01 0.00 88 1025.4
20221003114704 46 290 0.0 0.0 0.00 0.01 0.00 87 1025.5
20221003114204 46 290 0.0 0.0 0.00 0.01 0.00 87 1025.3
20221003112204 47 290 0.0 0.0 0.00 0.01 0.00 87 1025.2
20221003111704 47 290 0.0 0.0 0.00 0.01 0.00 86 1025.2
20221003111204 47 290 0.0 0.0 0.00 0.01 0.00 86 1025.3
20221003110704 48 290 0.0 0.0 0.00 0.01 0.00 85 1025.3
20221003110205 48 290 0.0 0.0 0.00 0.01 0.00 85 1025.2
20221003105705 48 290 0.0 0.0 0.00 0.01 0.00 85 1025.2
20221003105205 49 290 0.0 0.0 0.00 0.01 0.00 84 1025.3
20221003104704 49 290 0.0 0.0 0.00 0.01 0.00 84 1025.3
20221003104204 49 290 0.0 0.0 0.00 0.01 0.00 83 1025.2
20221003103204 50 290 0.0 0.0 0.00 0.01 0.00 83 1025.4
20221003102704 50 290 0.0 0.0 0.00 0.01 0.00 82 1025.6
20221003102204 50 290 0.0 0.0 0.00 0.01 0.00 82 1025.4
20221003101705 50 290 0.0 0.0 0.00 0.01 0.00 82 1025.5
20221003101204 51 290 0.0 0.0 0.00 0.01 0.00 82 1025.3
20221003100705 51 290 0.0 0.0 0.00 0.01 0.00 81 1025.3
20221003100204 51 290 0.0 0.0 0.00 0.01 0.00 81 1025.2
20221003095704 51 290 0.0 0.0 0.00 0.01 0.00 81 1025.3
20221003094704 52 290 0.0 0.0 0.00 0.01 0.00 80 1025.2
20221003094204 52 290 0.0 0.0 0.00 0.01 0.00 79 1025.0
20221003093704 52 290 0.0 0.0 0.00 0.01 0.00 79 1025.0
20221003093204 52 290 0.0 0.0 0.00 0.01 0.00 78 1025.0
20221003092205 53 290 0.0 0.0 0.00 0.01 0.00 77 1025.0
20221003091705 53 290 0.0 0.0 0.00 0.01 0.00 76 1025.0
20221003091204 53 290 0.0 0.0 0.00 0.01 0.00 76 1024.7
20221003090704 53 290 0.0 1.0 0.00 0.01 0.00 75 1024.7
20221003090205 54 290 0.0 1.0 0.00 0.01 0.00 74 1024.6
20221003085205 55 290 0.0 0.0 0.00 0.01 0.00 72 1024.4
20221003084205 56 290 0.0 1.0 0.00 0.01 0.00 72 1024.1
20221003083704 56 290 0.0 1.0 0.00 0.01 0.00 71 1024.1
20221003083205 57 290 0.0 5.0 0.00 0.01 0.00 70 1024.0
20221003082705 57 290 0.0 5.0 0.00 0.01 0.00 70 1024.1
20221003082205 57 291 2.0 6.0 0.00 0.01 0.00 70 1024.2
20221003081705 58 292 3.0 6.0 0.00 0.01 0.00 69 1024.2
20221003081204 58 292 2.0 5.0 0.00 0.01 0.00 69 1024.1
20221003080704 58 292 2.0 5.0 0.00 0.01 0.00 69 1024.0
20221003080205 58 292 2.0 6.0 0.00 0.01 0.00 68 1024.0
20221003075704 58 293 2.0 6.0 0.00 0.01 0.00 68 1023.8
20221003074704 59 294 1.0 3.0 0.00 0.01 0.00 67 1023.6
20221003074204 59 294 0.0 2.0 0.00 0.01 0.00 67 1023.5
20221003073705 59 294 0.0 0.0 0.00 0.01 0.00 67 1023.4
20221003073205 59 294 0.0 0.0 0.00 0.01 0.00 66 1023.3
20221003072204 60 294 0.0 5.0 0.00 0.01 0.00 64 1023.2
20221003071204 61 296 1.0 10.0 0.00 0.01 0.00 62 1023.2
20221003070705 61 296 3.0 10.0 0.00 0.01 0.00 60 1023.1
20221003070205 62 309 4.0 10.0 0.00 0.01 0.00 62 1023.0
20221003065705 62 304 7.0 10.0 0.00 0.01 0.00 59 1023.1
20221003065204 62 322 5.0 9.0 0.00 0.01 0.00 59 1023.0
20221003064704 62 302 6.0 9.0 0.00 0.01 0.00 60 1022.9
20221003064205 63 300 3.0 7.0 0.00 0.01 0.00 58 1022.8
20221003063705 62 296 2.0 8.0 0.00 0.01 0.00 59 1022.7
20221003063204 62 300 6.0 8.0 0.00 0.01 0.00 59 1022.7
20221003062204 62 317 2.0 10.0 0.00 0.01 0.00 60 1022.6
20221003061704 63 325 3.0 10.0 0.00 0.01 0.00 59 1022.6
20221003061204 62 308 5.0 10.0 0.00 0.01 0.00 61 1022.8
20221003060705 62 305 5.0 10.0 0.00 0.01 0.00 60 1022.7
20221003060205 62 307 5.0 10.0 0.00 0.01 0.00 62 1022.8
20221003055705 62 305 4.0 12.0 0.00 0.01 0.00 60 1022.8
20221003055205 62 289 5.0 12.0 0.00 0.01 0.00 59 1022.8
20221003054704 62 297 7.0 12.0 0.00 0.01 0.00 59 1023.0
20221003053705 62 284 3.0 10.0 0.00 0.01 0.00 59 1023.0
20221003052704 62 288 5.0 9.0 0.00 0.01 0.00 58 1023.0
20221003052204 63 285 3.0 9.0 0.00 0.01 0.00 58 1023.0
20221003051704 63 281 3.0 9.0 0.00 0.01 0.00 58 1023.1
20221003051204 63 269 2.0 9.0 0.00 0.01 0.00 59 1023.2
20221003050704 62 263 3.0 9.0 0.00 0.01 0.00 58 1023.1
20221003045704 62 279 5.0 6.0 0.00 0.01 0.00 59 1023.4
20221003045205 62 312 3.0 9.0 0.00 0.01 0.00 59 1023.4
20221003044704 63 325 4.0 9.0 0.00 0.01 0.00 59 1023.4
20221003044205 63 343 1.0 5.0 0.00 0.01 0.00 57 1023.4
20221003043705 64 350 0.0 5.0 0.00 0.01 0.00 56 1023.3
20221003043204 64 355 1.0 3.0 0.00 0.01 0.00 55 1023.4
20221003042704 63 348 0.0 3.0 0.00 0.01 0.00 55 1023.4
20221003042205 63 348 0.0 3.0 0.00 0.01 0.00 56 1023.5
20221003041704 63 347 0.0 1.0 0.00 0.01 0.00 56 1023.7
20221003040704 63 347 1.0 3.0 0.00 0.01 0.00 58 1023.8
20221003040204 64 345 1.0 3.0 0.00 0.01 0.00 58 1023.8
20221003035704 63 346 1.0 3.0 0.00 0.01 0.00 58 1023.8
20221003035204 63 349 1.0 9.0 0.00 0.01 0.00 56 1023.9
20221003034204 63 335 3.0 12.0 0.00 0.01 0.00 60 1024.0
20221003033705 63 316 7.0 12.0 0.00 0.01 0.00 60 1024.1
20221003033205 63 340 3.0 12.0 0.00 0.01 0.00 59 1024.1
20221003032704 64 293 4.0 12.0 0.00 0.01 0.00 61 1024.3
20221003032204 64 321 7.0 12.0 0.00 0.01 0.00 61 1024.3
20221003031704 63 47 5.0 9.0 0.00 0.01 0.00 56 1024.3
20221003031205 63 335 2.0 7.0 0.00 0.01 0.00 60 1024.5
20221003030204 63 335 0.0 6.0 0.00 0.01 0.00 58 1024.5
20221003025205 63 56 1.0 5.0 0.00 0.01 0.00 60 1024.7
20221003024705 63 53 1.0 5.0 0.00 0.01 0.00 57 1024.7
20221003024205 62 324 0.0 0.0 0.00 0.01 0.00 60 1024.7
20221003023705 62 325 0.0 1.0 0.00 0.01 0.00 59 1024.8
20221003023205 61 325 0.0 2.0 0.00 0.01 0.00 57 1025.0
20221003022704 62 325 0.0 2.0 0.00 0.01 0.00 57 1024.9
20221003022204 62 325 0.0 2.0 0.00 0.01 0.00 59 1025.0
20221003021204 62 325 0.0 5.0 0.00 0.01 0.00 65 1025.1
20221003015704 61 84 0.0 5.0 0.00 0.01 0.00 62 1025.1
20221003015204 61 81 1.0 9.0 0.00 0.01 0.00 60 1025.3
20221003014705 61 76 3.0 9.0 0.00 0.01 0.00 61 1025.4
20221003014205 61 54 1.0 6.0 0.00 0.01 0.00 64 1025.4
20221003013704 61 15 0.0 5.0 0.00 0.01 0.00 64 1025.4
20221003013204 60 68 2.0 5.0 0.00 0.01 0.00 63 1025.5
20221003012704 61 71 3.0 5.0 0.00 0.01 0.00 63 1025.5
20221003012204 61 53 1.0 6.0 0.00 0.01 0.00 64 1025.6
20221003011704 60 48 1.0 6.0 0.00 0.01 0.00 63 1025.7